COSMOS 894 DEB

Satellite information

Favourite Embed

Satellite Type and Status

DEBRISIN ORBIT

Key statistics

Satellite COSMOS 894 DEB at a glance.

Uptime

17827

Days in orbit

Revolutions

≈ 13.8

Per day

Orbit

LEO

Low Earth Orbit

Inclination

82.9

Latest

Satellite identification and parameters

Extended collection of information and parameters for COSMOS 894 DEB.

Object identification

Identified? True

Debris? True

Object name: COSMOS 894 DEB

International designator: 1977-013C

Object number (NORAD): 45506

Object ID (CCSDS): 45506

Country: COMMONWEALTH OF INDEPENDENT STATES (CIS)

Current information (Y/N): Y

RCS size: SMALL

Orbital parameters

Period: 104.405 minutes

Inclination: 82.9421 deg

SMA: 7344.709 km

Apoapsis: 988.22 km

Periapsis: 944.928 km

RAAN: 223.8765 deg

Eccentricy: 0.00294714

Argument of periapsis: 331.4856 deg

Mean anomaly: 28.4688 deg

Mean motion: 13.79243356 rev/day

Mean motion (dot): 0.00001107 rev/day2

B* drag term: 0.0010623787 1/REarth

Two-line elements (TLE)

Creation date: Dec. 12, 2025, 10:14 a.m.

Reference frame: TEME

Reference center: EARTH

Epoch: Dec. 12, 2025, 2:22 a.m. UTC

TLE line 0: 0 COSMOS 894 DEB

TLE line 1: 1 45506U 77013C 25346.09864353 .00001107 00000-0 10624-2 0 9990

TLE line 2: 2 45506 82.9421 223.8765 0029471 331.4856 28.4688 13.79243356587216

Live tracking on map

Real-time ground track for satellite COSMOS 894 DEB.

In-orbit conjunctions

A list of the most updated potential collisions computed for object COSMOS 894 DEB.

Target Orbit TCA Probability of collision Miss distance Type
FENGYUN 1C DEB SSO 2025-03-08 04:39:30 0.0001351425 60.0 (m) DEBRIS
COSMOS 1304 LEO 2025-01-30 18:25:18 0.000405684 542.0 (m) PAYLOAD
SL-8 R/B LEO 2024-10-19 09:37:58 0.0001169595 217.0 (m) ROCKET BODY

Associated space launch

Navigation satellite providing location information for the Tsiklon-B navigation system

COSMOS 894 DEB was lifted into orbit during the mission ‘Kosmos-3M | Parus 8’, on board a Kosmos-3M space rocket.

The launch took place on Feb. 21, 1977, 5:20 p.m. from 132/1 (132L).

For more information about the launch, click the button.

Launch to space Kosmos-3M | Parus 8
Kosmos-3M | Parus 8

Agency: N/A

Status: Launch Successful

Launch date: Feb. 21, 1977, 5:20 p.m. UTC

Rocket: Kosmos-3M

Launch pad: 132/1 (132L)

Location: Plesetsk Cosmodrome, Russian Federation

...

Latest news about this satellite

There are no fresh news available about this satellite. Check back as we update our databases every day.


Newsletter sign-up

Weekly statistics, charts and insights to help you stay on top of the space industry.